TimeEST,TemperatureF,Dew PointF,Humidity,Sea Level PressureIn,VisibilityMPH,Wind Direction,Wind SpeedMPH,Gust SpeedMPH,PrecipitationIn,Events,Conditions,WindDirDegrees,DateUTC
12:56 AM,42.1,21.9,45,29.75,10.0,SW,23.0,33.4,N/A,,Mostly Cloudy,230,2013-01-20 05:56:00
1:56 AM,42.1,23.0,47,29.73,10.0,SW,20.7,33.4,N/A,,Overcast,230,2013-01-20 06:56:00
2:56 AM,41.0,24.1,51,29.71,10.0,SW,21.9,34.5,N/A,,Mostly Cloudy,230,2013-01-20 07:56:00
3:56 AM,41.0,25.0,53,29.68,10.0,SW,19.6,29.9,N/A,,Clear,230,2013-01-20 08:56:00
4:56 AM,41.0,27.0,57,29.68,10.0,SW,24.2,33.4,N/A,,Mostly Cloudy,230,2013-01-20 09:56:00
5:56 AM,39.9,28.0,63,29.68,10.0,WSW,26.5,38.0,N/A,,Overcast,240,2013-01-20 10:56:00
6:56 AM,39.9,28.0,63,29.70,10.0,West,19.6,29.9,N/A,,Overcast,260,2013-01-20 11:56:00
7:56 AM,35.1,17.1,48,29.77,10.0,West,31.1,46.0,N/A,,Partly Cloudy,270,2013-01-20 12:56:00
8:56 AM,34.0,17.1,50,29.82,10.0,West,24.2,34.5,N/A,,Partly Cloudy,270,2013-01-20 13:56:00
9:56 AM,32.0,17.1,54,29.87,10.0,West,23.0,38.0,N/A,,Partly Cloudy,280,2013-01-20 14:56:00
10:56 AM,30.9,12.9,47,29.89,10.0,West,25.3,35.7,N/A,,Partly Cloudy,270,2013-01-20 15:56:00
11:56 AM,27.0,17.1,66,29.93,7.0,WNW,20.7,33.4,0.00,Snow,Light Snow,300,2013-01-20 16:56:00
12:06 PM,26.6,17.6,69,29.89,1.8,West,24.2,31.1,0.00,Snow,Light Snow,280,2013-01-20 17:06:00
12:18 PM,26.6,17.6,69,29.89,2.5,West,26.5,35.7,0.00,Snow,Light Snow,270,2013-01-20 17:18:00
12:27 PM,24.8,17.6,74,29.89,2.0,West,20.7,34.5,0.00,Snow,Light Snow,260,2013-01-20 17:27:00
12:34 PM,24.8,17.6,74,29.90,1.8,West,20.7,33.4,0.00,Snow,Light Snow,280,2013-01-20 17:34:00
12:47 PM,24.8,15.8,69,29.90,3.0,WNW,21.9,32.2,0.00,Snow,Light Snow,290,2013-01-20 17:47:00
12:56 PM,25.0,15.1,66,29.94,5.0,WNW,20.7,33.4,0.00,Snow,Light Snow,290,2013-01-20 17:56:00
1:07 PM,26.6,12.2,55,29.90,9.0,West,23.0,29.9,0.00,,Overcast,270,2013-01-20 18:07:00
1:56 PM,25.0,10.9,55,29.97,10.0,West,21.9,36.8,0.00,,Overcast,280,2013-01-20 18:56:00
2:56 PM,23.0,10.0,58,30.01,10.0,West,17.3,27.6,N/A,,Overcast,270,2013-01-20 19:56:00
3:56 PM,21.0,9.0,60,30.02,10.0,West,15.0,25.3,N/A,,Overcast,280,2013-01-20 20:56:00
4:56 PM,19.9,8.1,60,30.03,10.0,West,12.7,20.7,N/A,,Mostly Cloudy,280,2013-01-20 21:56:00
5:56 PM,19.0,8.1,62,30.07,10.0,West,11.5,-,N/A,,Overcast,280,2013-01-20 22:56:00
6:56 PM,18.0,8.1,65,30.08,10.0,West,11.5,24.2,N/A,,Clear,280,2013-01-20 23:56:00
7:56 PM,18.0,8.1,65,30.10,10.0,WNW,11.5,18.4,N/A,,Overcast,290,2013-01-21 00:56:00
8:56 PM,18.0,7.0,62,30.10,10.0,WNW,6.9,-,N/A,,Overcast,300,2013-01-21 01:56:00
9:56 PM,17.1,7.0,65,30.11,10.0,West,9.2,-,N/A,,Scattered Clouds,270,2013-01-21 02:56:00
10:56 PM,17.1,8.1,68,30.09,10.0,West,9.2,-,N/A,,Overcast,260,2013-01-21 03:56:00
11:56 PM,16.0,8.1,71,30.07,10.0,West,8.1,-,N/A,,Mostly Cloudy,260,2013-01-21 04:56:00